Weather History for Akron Canton, OH

Change the Weather History Date:

Sunday, November 2, 2014

  Actual Average Record
Temperature  
Mean Temperature 38 °F 46 °F  
Max Temperature 46 °F 55 °F 76 °F (1933)
Min Temperature 30 °F 38 °F 22 °F (1905)
Degree Days  
Heating Degree Days 27 19  
Month to date heating degree days 52 37  
Since 1 July heating degree days 510 592  
Cooling Degree Days 0 0  
Month to date cooling degree days 0 0  
Year to date cooling degree days 719 652  
Moisture  
Dew Point 24 °F    
Average Humidity 60    
Maximum Humidity 78    
Minimum Humidity 42    
Precipitation  
Precipitation 0.00 in 0.11 in 2.04 in (1999)
Month to date precipitation 0.08 0.22  
Year to date precipitation 40.89 33.70  
Snow  
Snow 0.00 in 0.10 in - ()
Month to date snowfall 0.0 0.1  
Since 1 July snowfall 0.0 0.5  
Since 1 September snowfall 0.0 0.5  
Snow Depth 0.00 in    
Sea Level Pressure  
Sea Level Pressure 30.34 in    
Wind  
Wind Speed 10 mph (NW)    
Max Wind Speed 18 mph    
Max Gust Speed 29 mph    
Visibility 10 miles    
Events      
T = Trace of Precipitation, MM = Missing Value Source: NWS Daily Summary

Daily Weather History Graph

Daily Weather History Graph

Search for Another Location

Airport:

Trip Planner

Search our weather history database for the weather conditions in past years. The results will help you decide how hot, cold, wet, or windy it might be!

Date:

Astronomy

Nov. 02, 2014 Rise Set
Actual Time 6:57 AM EST 5:20 PM EST
Civil Twilight 6:29 AM EST 5:49 PM EST
Nautical Twilight 5:56 AM EST 6:21 PM EST
Astronomical Twilight 5:24 AM EST 6:53 PM EST
Moon 2:53 PM EST (11/2) 1:56 AM EST (11/2)
Length of Visible Light 11h 20m
Length of Day
10h 22m
Waxing Gibbous, 78% of the Moon is Illuminated
Nov 2
Waxing Gibbous
Nov 6
Full
Nov 14
Last Quarter
Nov 22
New
Nov 29
First Quarter

Hourly Weather History & Observations

Time (EST) Temp. Windchill Dew Point Humidity Pressure Visibility Wind Dir Wind Speed Gust Speed Precip Events Conditions
12:51 AM 36.0 °F 28.5 °F 21.9 °F 57% 30.25 in 10.0 mi North 10.4 mph 19.6 mph N/A   Overcast
1:51 AM 35.1 °F 26.9 °F 21.0 °F 57% 30.26 in 10.0 mi North 11.5 mph 20.7 mph N/A   Overcast
1:51 AM 35.1 °F 27.9 °F 21.9 °F 59% 30.26 in 10.0 mi North 9.2 mph - N/A   Overcast
2:51 AM 35.1 °F 26.9 °F 21.0 °F 57% 30.28 in 10.0 mi North 11.5 mph - N/A   Overcast
3:51 AM 36.0 °F 28.0 °F 21.9 °F 57% 30.29 in 10.0 mi North 11.5 mph - N/A   Overcast
4:51 AM 35.1 °F 26.4 °F 21.9 °F 59% 30.31 in 10.0 mi North 12.7 mph - N/A   Overcast
5:51 AM 35.1 °F 26.4 °F 23.0 °F 61% 30.34 in 10.0 mi North 12.7 mph - N/A   Overcast
6:51 AM 35.1 °F 29.3 °F 24.1 °F 64% 30.35 in 10.0 mi North 6.9 mph - N/A   Overcast
7:51 AM 35.1 °F 28.6 °F 24.1 °F 64% 30.36 in 10.0 mi North 8.1 mph - N/A   Scattered Clouds
8:51 AM 37.0 °F 29.8 °F 26.1 °F 65% 30.38 in 10.0 mi NNW 10.4 mph - N/A   Scattered Clouds
9:51 AM 41.0 °F 33.5 °F 26.1 °F 55% 30.38 in 10.0 mi NNW 13.8 mph 21.9 mph N/A   Scattered Clouds
10:51 AM 42.1 °F 35.7 °F 27.0 °F 55% 30.38 in 10.0 mi NNW 11.5 mph - N/A   Scattered Clouds
11:51 AM 42.1 °F 34.2 °F 28.0 °F 58% 30.38 in 10.0 mi NNW 16.1 mph 20.7 mph N/A   Scattered Clouds
12:51 PM 45.0 °F 38.5 °F 28.9 °F 53% 30.36 in 10.0 mi NNW 13.8 mph 18.4 mph N/A   Scattered Clouds
1:51 PM 45.0 °F 39.3 °F 26.1 °F 48% 30.34 in 10.0 mi NW 11.5 mph 17.3 mph N/A   Partly Cloudy
2:51 PM 46.0 °F 41.4 °F 24.1 °F 42% 30.33 in 10.0 mi NW 9.2 mph - N/A   Partly Cloudy
3:51 PM 46.0 °F 40.6 °F 26.1 °F 46% 30.33 in 10.0 mi West 11.5 mph - N/A   Clear
4:51 PM 42.1 °F 36.6 °F 25.0 °F 51% 30.34 in 10.0 mi WNW 9.2 mph - N/A   Clear
5:51 PM 37.0 °F 33.3 °F 25.0 °F 62% 30.35 in 10.0 mi WNW 4.6 mph - N/A   Clear
6:51 PM 37.9 °F 33.5 °F 25.0 °F 60% 30.35 in 10.0 mi West 5.8 mph - N/A   Clear
7:51 PM 36.0 °F 30.3 °F 25.0 °F 64% 30.36 in 10.0 mi West 6.9 mph - N/A   Clear
8:51 PM 35.1 °F 30.1 °F 24.1 °F 64% 30.36 in 10.0 mi West 5.8 mph - N/A   Clear
9:51 PM 35.1 °F 31.0 °F 24.1 °F 64% 30.36 in 10.0 mi WSW 4.6 mph - N/A   Clear
10:51 PM 30.9 °F 25.2 °F 24.1 °F 76% 30.36 in 10.0 mi SW 5.8 mph - N/A   Clear